Regional Weather Roundup
Issued by NWS State College, PA

Home | Current Version | Previous Version | Text Only | Print | Product List | Glossary On
Versions: 1 2 3 4 5 6 7 8 9 10 11 12 13 14 15 16 17 18 19 20 21 22 23 24 25 26 27 28 29 30 31 32 33 34 35 36 37 38 39 40 41 42 43 44 45 46 47 48 49 50
000
ASUS41 KCTP 212110
RWRCTP

REGIONAL WEATHER ROUNDUP
NATIONAL WEATHER SERVICE STATE COLLEGE PA
500 PM EDT TUE OCT 21 2014

Note: "fair" indicates few or no clouds below 12,000 feet with no
significant weather and/or obstructions to visibility.

* = STATION THAT DOES NOT REPORT PRECIPITATION /E.G. RAIN...SNOW...ETC/
    THUNDER OR FOG.

PAZ002>004-007>009-013>016-020>023-029>032-212200-
WESTERN PENNSYLVANIA

CITY           SKY/WX    TMP DP  RH WIND       PRES   REMARKS
ERIE           CLOUDY    52  45  77 NW3       29.94R
MEADVILLE      CLOUDY    47  44  90 NW6       29.93R
FRANKLIN*      CLOUDY    46  43  87 NW6       29.93R
NEW CASTLE       N/A     47  45  93 W3        29.96R
BEAVER COUNTY  CLOUDY    46  45  93 NW9       29.94R
BUTLER*        CLOUDY    48  43  81 NW7       29.94R
PITTSBURGH INT CLOUDY    50  46  86 N16       29.93R
PITTSBURGH     LGT RAIN  50  44  80 NW14G20   29.91R
INDIANA*       CLOUDY    52  45  76 VRB5      29.93R
LATROBE        LGT RAIN  50  50 100 CALM      29.91R
WASHINGTON CO* CLOUDY    48  45  87 NW7       29.95R
$$

PAZ004>006-010>012-017>019-024>028-033>037-041-042-045-046-049>053-212200-
CENTRAL PENNSYLVANIA

CITY           SKY/WX    TMP DP  RH WIND       PRES   REMARKS
BRADFORD       CLOUDY    50  43  77 NW8       29.89R
DUBOIS         CLOUDY    48  47  96 NW6       29.88R
CLEARFIELD     CLOUDY    50  46  86 N7        29.88R
JOHNSTOWN      CLOUDY    48  41  76 W7        29.88R
ALTOONA        CLOUDY    54  43  66 NW10      29.87R
STATE COLLEGE  LGT RAIN  52  48  87 NW6       29.87R
WILLIAMSPORT   CLOUDY    58  47  66 CALM      29.84S
SELINSGROVE    CLOUDY    62  47  57 NE5       29.84S
FT INDIANTOWN  PTSUNNY   62  51  66 N5        29.83S
CAPITAL CITY   CLOUDY    61  48  62 NW5       29.83R
HARRISBURG     PTSUNNY   60  49  66 NW7       29.82R
YORK           PTSUNNY   62  46  55 N5        29.83R
$$

PAZ038>040-043-044-047-048-054-055-060>062-067>071-212200-
EASTERN PENNSYLVANIA

CITY           SKY/WX    TMP DP  RH WIND       PRES   REMARKS
SCRANTON       CLOUDY    60  46  59 SW3       29.84S
MOUNT POCONO   PTSUNNY   53  47  79 NE5       29.84S
ALLENTOWN      SUNNY     65  45  48 CALM      29.82S
QUAKERTOWN*    PTCLDY    64  48  55 CALM      29.82S
READING        MOSUNNY   65  48  54 NW6       29.81S
LANCASTER      MOSUNNY   62  47  57 NW5       29.82R
COATESVILLE    PTCLDY    61  50  67 NW3       29.83R
POTTSTOWN      CLOUDY    64  48  56 E3        29.82S
BLUE BELL      SUNNY     64  48  55 CALM      29.80S
DOYLESTOWN     MOSUNNY   65  48  54 N6        29.81S
WILLOW GROVE   NOT AVBL
NORTH PHILA    PTSUNNY   68  46  45 CALM      29.82S
PHILADELPHIA   MOSUNNY   68  46  45 W5        29.81S
$$



USA.gov is the U.S. government's official web portal to all federal, state and local government web resources and services.